Welcome to the New NWS' Forecast!
Most changes are behind the scenes, but click here for differences you might notice.
Latest weather observations around

Fairfield / Travis Air Force Base (KSUU)

Using English Units (Switch to International System of Units)
Date/ Time (PDT) Wind (mph) Vis. (mi) Weather Sky Cond. Temp (°F) Rel. Humidity Wind Chill (°F) Heat Index (°F) Pressure Precip. (in)
Air Dwpt 6 hour Altimeter (inHg) Sea level (inHg) 1 hr 3 hr 6 hr
Max Min
Notice The following observation data may not be complete
Sep 23 06:58 NW 8 10 Clear CLR   35      %     29.87 29.89      
Sep 23 05:58 NNW 5 10 Clear CLR 52 36     53%     29.86 29.88      
Sep 23 04:58 NNW 8 10 Clear CLR 50 37     62% 46   29.86 29.88      
Notice The following observation data may not be complete
Sep 23 03:58 N 6 10 Clear CLR   36      %     29.86 29.88      
Notice The following observation data may not be complete
Sep 23 02:58 Calm 10 Clear CLR   41      %     29.86 29.88      
Notice The following observation data may not be complete
Sep 23 01:58 NNW 5 10 Clear CLR   40      %     29.85 29.87      
Notice The following observation data may not be complete
Sep 23 00:58 WSW 6 10 Clear CLR   42      %     29.85 29.87      
Sep 22 23:58 WSW 6 10 Clear CLR 50 41     72% 48   29.85 29.87      
Notice The following observation data may not be complete
Sep 22 22:58 W 5 10 Clear CLR   42      %     29.86 29.88      
Sep 22 21:58 Calm 10 Clear CLR 54 42     64%     29.85 29.87      
Sep 22 20:58 W 6 10 Clear CLR 57 44     60%     29.86 29.88      
Sep 22 19:58 WSW 9 10 Clear CLR 64 46     52%     29.85 29.87      
Sep 22 18:58 WSW 11 10 Clear CLR 69 39     34%     29.84 29.86      
Sep 22 17:58 NE 9 10 Clear CLR 73 39     30%   71 29.84 29.86      
Sep 22 16:58 Calm 10 Clear CLR 73 40     30%   72 29.84 29.86      
Sep 22 15:58 NE 3 10 Clear CLR 74 40     29%   72 29.85 29.87      
Sep 22 14:58 NE 6 10 Clear CLR 72 40     30%   71 29.87 29.89      
Sep 22 13:58 NE 6 10 Clear CLR 71 40     33%   69 29.88 29.9      
Sep 22 12:58 Calm 10 Clear CLR 69 44     40%     29.9 29.92      
Sep 22 11:58 NE 5 10 Clear CLR 66 46     48%     29.91 29.93      
Sep 22 10:58 Calm 10 Clear CLR 64 46     51%     29.92 29.94      
Sep 22 09:58 W 3 10 Clear CLR 61 46     57%     29.92 29.94      
Sep 22 08:58 N 5 10 Clear CLR 57 46     66%     29.9 29.92      
Sep 22 07:58 Calm 10 Clear CLR 50 44     78%     29.9 29.92      
Sep 22 06:58 W 5 10 Clear CLR 46 41     84% 43   29.88 29.9      
Sep 22 05:58 Calm 10 Clear CLR 47 42     83%     29.86 29.88      
Sep 22 04:58 SW 10 10 Clear   49 43     77% 45   29.85 29.87      
Sep 22 03:58 SW 10 10 Clear CLR 50 42     74% 46   29.85 29.87      
Sep 22 02:58 WSW 15 10 Clear CLR 53 43     68%     29.84 29.86      
Sep 22 01:58 WSW 15 10 Clear CLR 53 43     69%     29.84 29.86      
Sep 22 00:58 WSW 15 10 Clear CLR 54 44     69%     29.85 29.87      
Sep 21 23:58 SSW 13 10 Mostly Clear FEW170 54 45     71%     29.85 29.87      
Sep 21 22:58 SW 14 10 Clear CLR 56 46     68%     29.85 29.87      
Sep 21 21:58 WSW 13 10 Clear CLR 56 46     70%     29.85 29.87      
Sep 21 20:58 SW 13 10 Clear CLR 59 47     65%     29.85 29.87      
Sep 21 19:58 SW 17 10 Clear CLR 61 47     59%     29.83 29.85      
Sep 21 18:58 SW 15 10 Clear CLR 65 44     47%     29.82 29.84      
Sep 21 17:58 WSW 17 10 Clear CLR 69 42     37%     29.82 29.84      
Notice The following observation data may not be complete
Sep 21 16:58   10 Clear CLR          %              
Sep 21 15:58 S 8 10 Clear CLR 73 39     30%   71 29.81 29.81      
Sep 21 14:58 SSW 10 10 Clear CLR 71 39     31%   69 29.82        
Sep 21 13:58 SSW 10 10 Clear CLR 70 40     33%   68 29.83        
Sep 21 12:58 SSW 9 10 Clear CLR 70 40     34%   68 29.85 29.87      
Sep 21 11:58 WSW 6 10 Clear CLR 68 40     37%     29.87 29.89      
Sep 21 10:58 W 3 10 Mostly Clear FEW190 67 39     36%     29.86 29.88      
Sep 21 09:58 Calm 10 Clear CLR 64 41     42%     29.86 29.88      
Sep 21 08:58 WSW 7 10 Clear CLR 60 43     52%     29.86 29.88      
Sep 21 07:58 SW 6 10 Mostly Cloudy BKN070 52 45     76%     29.84 29.86      
Sep 21 06:58 SSW 5 10 Partly Cloudy SCT070 47 42     83% 44   29.83 29.85      
Sep 21 05:58 SW 7 10 Clear CLR 48 42     79% 45   29.81 29.83      
Sep 21 04:58 WSW 10 10 Clear CLR 51 42     74%     29.8 29.82      
Sep 21 03:58 SW 9 10 Clear CLR 52 43     71%     29.81 29.83      
Sep 21 02:58 WSW 9 10 Clear CLR 55 43     65%     29.8 29.82      
Sep 21 01:58 WSW 10 10 Clear CLR 56 44     64%     29.82 29.84      
Sep 21 00:58 WSW 17 10 Clear CLR 55 48     76%     29.81 29.83      
Sep 20 23:58 SW 15 10 Clear CLR 56 49     75%     29.82 29.84      
Sep 20 22:58 W 9 10 Mostly Clear FEW160 62 44     53%     29.81        
Sep 20 21:58 WSW 13 10 Mostly Cloudy BKN150 62 50     65%     29.8        
Sep 20 20:58 WSW 9 10 Mostly Cloudy BKN140 63 50     64%     29.8        
Sep 20 19:58 WSW 20 10 Partly Cloudy and Windy SCT120 65 47     52%     29.78 29.8      
Sep 20 18:58 WSW 16 10 Cloudy OVC110 67 48     52%     29.79 29.81      
Sep 20 17:58 WSW 21 10 Cloudy and Windy OVC110 69 51     54%     29.79 29.81      
Sep 20 16:58 WSW 21 10 Mostly Cloudy and Windy SCT100 BKN120 72 51     49%   71 29.79 29.81      
Sep 20 15:58 WSW 24 10 Partly Cloudy and Windy FEW044 SCT150 75 52     45%   75 29.8 29.82      
Sep 20 14:58 WSW 23 10 Partly Cloudy and Windy SCT042 76 54     47%   75 29.8 29.82      
Sep 20 13:58   10 Partly Cloudy FEW120 SCT170 77 54     45%   77 29.82 29.84      
Sep 20 13:10 WSW 17 10 Partly Cloudy SCT041 75 57     54%   75 29.84 29.86      
Sep 20 11:58 WSW 17 10 Mostly Clear FEW033 76 57     53%   76 29.85 29.87      
Sep 20 10:58 WSW 17 10 Partly Cloudy SCT027 72 57     59%   72 29.88 29.9      
Sep 20 09:58   10 Clear CLR 70 57     63%     29.87 29.89      
Sep 20 08:58 SW 17 10 Clear CLR 66 57     72%     29.89 29.91      
Sep 20 07:58 SW 18 10 Clear CLR 62 53     73%     29.89 29.91      
Jun 11 20:58 WSW 8 10 Clear   53 48     81%     29.93 29.95      
Jun 11 17:58 WNW 6 5 Rain OVC060 53 48     81%     29.95   0    
Jun 11 14:58 WSW 16 10 Clear CLR 71 41     34%   69 29.87 29.89      
Jun 10 19:58   10 Clear   63 45     52%     29.86 29.88      
Jun 10 17:58 WSW 21 8 Clear and Windy CLR 70 46     43%     29.85 29.87      
Jun 10 15:58 WSW 22 10 Clear and Windy CLR 73 45     37%   72 29.86 29.88      
Jun 10 13:32 W 16 10 Mostly Clear FEW055 73 45     36%   72 29.89 29.91      
Jun 10 12:03   10 Clear CLR 73 39     29%   72 29.91 29.93      
Jun 09 22:58 SW 11 10 Clear CLR 55 48     77%     29.92 29.94      
Notice The following observation data may not be complete
Jun 09 16:58   10 Clear CLR          %              
Jun 09 15:58 SW 16 10 Clear CLR 72 47     41%   71 29.89 29.91      
Jun 08 11:58 ESE 6 10 Cloudy BKN028 OVC033 65 52     62%     30.02 30.04 0    
Jun 08 11:17 Calm 10 Cloudy OVC028 61 52     72%     30.02 30.04      
Notice The following observation data may not be complete
Jun 08 11:06   9 Light Rain OVC028          %              
Jun 08 10:58 Calm 7 Light Drizzle OVC028 60 51     73%     30.01 30.03 0   0
Jun 07 12:58   10 Mostly Cloudy FEW080 SCT150 BKN180 BKN210 71 52     52%   70 29.84 29.86      
Notice The following observation data may not be complete
Jun 07 05:58   10 Clear CLR          %              
Jun 06 11:58 WSW 16 10 Clear CLR 75 52     44%   75 29.86 29.88      
Jun 06 10:58 SW 17 10 Clear CLR 71 52     50%   70 29.87 29.89      
Jun 06 01:58   10 Clear CLR 58 50     76%     29.82 29.84      
Jun 05 12:58 SSW 6 10 Clear CLR 84 51     32%   82 29.85 29.87